Greenwood, MS

2:03 AM CDT on September 01, 2016 (GMT -0500)
Greenwood-Leflore

Weather History for KGWO - June, 2013

Change the Weather History Date:

Thursday, June 13, 2013

  Actual Average Record
Temperature  
Mean Temperature 84 °F 79 °F  
Max Temperature 94 °F 89 °F 102 °F (1953)
Min Temperature 73 °F 68 °F 57 °F (1955)
Degree Days  
Heating Degree Days 0 0  
Month to date heating degree days 0 0  
Since 1 June heating degree days 0 0  
Since 1 July heating degree days 2780 2688  
Cooling Degree Days 19 14  
Month to date cooling degree days 159 160  
Year to date cooling degree days 435 490  
Since 1 June cooling degree days 159 160  
Growing Degree Days 33 (Base 50)    
Moisture  
Dew Point 74 °F    
Average Humidity 78    
Maximum Humidity 100    
Minimum Humidity 56    
Precipitation  
Precipitation T in 0.13 in 4.51 in (1989)
Month to date precipitation 2.42 1.84  
Year to date precipitation 32.83 25.17  
Sea Level Pressure  
Sea Level Pressure 29.94 in    
Wind  
Wind Speed 6 mph (WSW)    
Max Wind Speed 15 mph    
Max Gust Speed 21 mph    
Visibility 9 miles    
Events Rain    
T = Trace of Precipitation, MM = Missing Value Source: NWS Daily Summary

Daily Weather History Graph

Daily Weather History Graph

Search for Another Location

Airport or City:

Trip Planner

Search our weather history database for the weather conditions in past years. The results will help you decide how hot, cold, wet, or windy it might be!

Date:

Astronomy

Jun. 13, 2013 Rise Set
Actual Time 5:49 AM CDT 8:11 PM CDT
Civil Twilight 5:20 AM CDT 8:40 PM CDT
Nautical Twilight 4:45 AM CDT 9:15 PM CDT
Astronomical Twilight 4:06 AM CDT 9:54 PM CDT
Moon 10:15 AM CDT (6/13) 11:30 PM CDT (6/13)
Length of Visible Light 15h 19m
Length of Day
14h 21m
Waxing Crescent, 22% of the Moon is Illuminated
Jun 13
Waxing Crescent
Jun 16
First Quarter
Jun 23
Full
Jun 29
Last Quarter
Jul 8
New

Hourly Weather History & Observations

Time (CDT) Temp. Heat Index Dew Point Humidity Pressure Visibility Wind Dir Wind Speed Gust Speed Precip Events Conditions
12:53 AM 77.0 °F - 73.9 °F 90% 29.99 in 9.0 mi Calm Calm - N/A   Clear
1:53 AM 75.0 °F - 73.9 °F 96% 29.98 in 7.0 mi SSW 3.5 mph - N/A   Clear
2:53 AM 73.9 °F - 73.0 °F 97% 29.97 in 7.0 mi SSW 4.6 mph - N/A   Clear
3:53 AM 73.9 °F - 73.0 °F 97% 29.97 in 8.0 mi SSW 4.6 mph - N/A   Clear
4:53 AM 73.9 °F - 73.0 °F 97% 29.97 in 7.0 mi SSW 4.6 mph - N/A   Clear
5:53 AM 73.0 °F - 72.0 °F 96% 29.98 in 6.0 mi SSW 4.6 mph - N/A   Clear
6:53 AM 75.0 °F - 73.9 °F 96% 30.00 in 5.0 mi SSW 3.5 mph - N/A   Clear
7:53 AM 80.1 °F 85.1 °F 75.0 °F 85% 30.01 in 10.0 mi SW 6.9 mph - N/A   Clear
8:53 AM 82.9 °F 90.2 °F 75.0 °F 77% 30.01 in 10.0 mi SW 8.1 mph - N/A   Clear
9:53 AM 87.1 °F 96.3 °F 75.0 °F 67% 30.00 in 10.0 mi WSW 8.1 mph - N/A   Clear
10:53 AM 88.0 °F 97.5 °F 75.0 °F 65% 29.99 in 10.0 mi WSW 9.2 mph - N/A   Mostly Cloudy
11:53 AM 89.1 °F 99.1 °F 75.0 °F 63% 29.98 in 10.0 mi Variable 6.9 mph - N/A   Mostly Cloudy
12:53 PM 91.0 °F 101.6 °F 75.0 °F 59% 29.96 in 10.0 mi WSW 6.9 mph - N/A   Mostly Cloudy
1:53 PM 91.0 °F 99.3 °F 73.0 °F 55% 29.93 in 10.0 mi WSW 9.2 mph 16.1 mph N/A   Scattered Clouds
2:43 PM 91.4 °F 100.1 °F 73.4 °F 55% 29.92 in 2.5 mi WSW 9.2 mph - N/A   Haze
2:53 PM 91.0 °F 100.4 °F 73.9 °F 57% 29.92 in 10.0 mi West 8.1 mph 17.3 mph N/A   Mostly Cloudy
3:53 PM 93.0 °F 104.6 °F 75.0 °F 56% 29.89 in 10.0 mi West 4.6 mph - N/A   Mostly Cloudy
4:53 PM 91.0 °F 102.9 °F 75.9 °F 61% 29.87 in 10.0 mi West 4.6 mph - N/A   Mostly Cloudy
5:53 PM 93.0 °F 105.3 °F 75.9 °F 57% 29.85 in 10.0 mi West 4.6 mph - N/A   Partly Cloudy
6:53 PM 89.1 °F 100.2 °F 75.9 °F 65% 29.85 in 10.0 mi Calm Calm - N/A   Clear
7:53 PM 89.1 °F 99.1 °F 75.0 °F 63% 29.84 in 10.0 mi Calm Calm - N/A   Clear
8:53 PM 86.0 °F 96.0 °F 75.9 °F 72% 29.85 in 10.0 mi Calm Calm - 0.00 in Rain Light Rain
9:53 PM 82.9 °F 87.0 °F 70.0 °F 65% 29.88 in 10.0 mi NNE 5.8 mph - 0.00 in   Clear
10:53 PM 82.0 °F 85.5 °F 69.1 °F 65% 29.91 in 10.0 mi NNE 9.2 mph - N/A   Scattered Clouds
11:53 PM 80.1 °F 82.3 °F 66.9 °F 64% 29.92 in 10.0 mi NNE 11.5 mph - N/A   Scattered Clouds